TimePDT,TemperatureF,Dew PointF,Humidity,Sea Level PressureIn,VisibilityMPH,Wind Direction,Wind SpeedMPH,Gust SpeedMPH,PrecipitationIn,Events,Conditions,WindDirDegrees,DateUTC
12:56 AM,48.9,38.8,68,30.12,9.0,SE,6.9,-,N/A,,Clear,140,2014-03-24 07:56:00
1:56 AM,45.9,38.8,76,30.11,9.0,Calm,Calm,-,N/A,,Clear,0,2014-03-24 08:56:00
2:56 AM,47.8,38.8,71,30.09,9.0,SSE,9.2,-,N/A,,Clear,160,2014-03-24 09:56:00
3:56 AM,47.8,37.9,69,30.07,9.0,ESE,5.8,-,N/A,,Clear,110,2014-03-24 10:56:00
4:56 AM,43.9,37.9,80,30.07,9.0,Calm,Calm,-,N/A,,Clear,0,2014-03-24 11:56:00
5:56 AM,45.9,36.9,71,30.09,9.0,ESE,5.8,-,N/A,,Clear,120,2014-03-24 12:56:00
6:56 AM,45.0,36.9,73,30.09,9.0,SSE,6.9,-,N/A,,Clear,150,2014-03-24 13:56:00
7:56 AM,45.0,36.9,73,30.11,8.0,SSE,9.2,-,N/A,,Clear,160,2014-03-24 14:56:00
8:56 AM,46.9,37.9,71,30.13,8.0,ESE,5.8,-,N/A,,Clear,120,2014-03-24 15:56:00
9:56 AM,50.9,41.9,71,30.15,7.0,SE,10.4,-,N/A,,Clear,140,2014-03-24 16:56:00
10:56 AM,54.9,43.9,66,30.15,7.0,South,9.2,-,N/A,,Clear,190,2014-03-24 17:56:00
11:56 AM,54.9,45.0,69,30.14,6.0,South,9.2,-,N/A,,Haze,170,2014-03-24 18:56:00
12:56 PM,52.0,45.9,80,30.17,6.0,Variable,6.9,-,N/A,,Haze,0,2014-03-24 19:56:00
1:01 PM,50.0,46.4,87,30.17,0.8,Variable,5.8,-,N/A,,Mostly Cloudy,0,2014-03-24 20:01:00
1:04 PM,48.2,46.4,93,30.17,0.5,Variable,4.6,-,N/A,Fog,Fog,0,2014-03-24 20:04:00
1:12 PM,46.4,44.6,93,30.16,0.2,Variable,3.5,-,N/A,Fog,Fog,0,2014-03-24 20:12:00
1:35 PM,50.0,44.6,82,30.15,7.0,Variable,3.5,-,N/A,,Mostly Cloudy,0,2014-03-24 20:35:00
1:46 PM,51.8,44.6,76,30.15,7.0,Variable,4.6,-,N/A,,Scattered Clouds,0,2014-03-24 20:46:00
1:56 PM,52.9,45.0,74,30.15,7.0,SSE,8.1,-,N/A,,Clear,160,2014-03-24 20:56:00
2:56 PM,57.9,37.9,47,30.11,8.0,SSE,8.1,-,N/A,,Clear,150,2014-03-24 21:56:00
3:56 PM,59.9,31.1,34,30.08,8.0,SSE,9.2,-,N/A,,Clear,160,2014-03-24 22:56:00
4:56 PM,61.0,32.0,34,30.04,8.0,SSE,6.9,-,N/A,,Clear,160,2014-03-24 23:56:00
5:56 PM,61.0,36.0,39,30.01,8.0,SE,6.9,-,N/A,,Clear,140,2014-03-25 00:56:00
6:56 PM,50.0,41.0,71,30.05,7.0,Variable,4.6,-,N/A,,Clear,0,2014-03-25 01:56:00
7:56 PM,48.9,38.8,68,30.04,10.0,Calm,Calm,-,N/A,,Clear,0,2014-03-25 02:56:00
8:56 PM,50.0,36.0,59,30.02,10.0,Variable,4.6,-,N/A,,Clear,0,2014-03-25 03:56:00
9:56 PM,50.9,32.0,48,30.01,10.0,East,8.1,-,N/A,,Partly Cloudy,90,2014-03-25 04:56:00
10:56 PM,52.0,30.0,43,30.00,10.0,East,4.6,-,N/A,,Partly Cloudy,90,2014-03-25 05:56:00
11:56 PM,52.0,32.0,47,29.99,9.0,SSE,8.1,-,N/A,,Mostly Cloudy,160,2014-03-25 06:56:00